sat.trackr.live / text

‹ back to catalog

STARLINK-36599

NORAD 67638 · 2026-020X

PAYLOAD ACTIVE UNKNOWN

§ Identity

Operator
Country
US
Launch date
2026-01-30
Launch site
AFETR
Launch vehicle
Mass (kg)
RCS (m²)

Purposes: comms

External: N2YO · Heavens-Above · Gunter

§ Orbital elements

Epoch: 2026-05-25T03:46:20.606880Z

Period
94.27 min
Inclination
43.0029°
Eccentricity
0.0001173
Mean motion
15.27601832 rev/d
Perigee alt
482.2 km
Apogee alt
483.8 km
Semi-major
6,861.1 km
B*
1.1596e-3
RAAN
68.3242°
Arg perigee
262.6779°
Mean anomaly
97.3939°
Rev number
1,780

§ Raw data

STARLINK-365991 67638U 26020X   26145.15718295  .00031806  00000+0  11596-2 0  99972 67638  43.0029  68.3242 0001173 262.6779  97.3939 15.27601832 17807

JSON: /api/v1/satellites/67638 · /tle

For live sub-satellite position, see the globe view (requires WebGL).

§ Visibility from observer

Set your observer location to see the next 7 days of passes ≥ 10°. The values pass through the URL so the page stays shareable.

No JS? Fill the form by hand. The geolocation button needs JavaScript.